Regional Weather Roundup
Issued by NWS Boston, MA

Current Version | Previous Version | Text Only | Print | Product List | Glossary Off
Versions: 1 2 3 4 5 6 7 8 9 10 11 12 13 14 15 16 17 18 19 20 21 22 23 24 25 26 27
000 ASUS41 KBOX 211610 RWRBOX REGIONAL WEATHER ROUNDUP NATIONAL WEATHER SERVICE BOSTON/NORTON MA 1200 PM EDT THU JUN 21 2018 NOTE: "FAIR" INDICATES FEW OR NO CLOUDS BELOW 12,000 FEET WITH NO SIGNIFICANT WEATHER AND/OR OBSTRUCTIONS TO VISIBILITY. MAZALL-211700- EASTERN MASSACHUSETTS CITY SKY/WX TMP DP RH WIND PRES REMARKS BOSTON FAIR 79 56 45 E13 29.77S BEVERLY FAIR 78 60 53 E10 29.77S LAWRENCE FAIR 81 58 45 N6 29.80S BEDFORD FAIR 80 56 43 NW5 29.76F BLUE HILL N/A 80 55 42 VRB3 29.78F NORWOOD FAIR 83 57 41 VRB3 29.76F MARSHFIELD FAIR 77 55 47 NE8 29.78R PLYMOUTH FAIR 78 60 53 CALM 29.78F TAUNTON FAIR 80 60 50 VRB5 29.77S NEW BEDFORD FAIR 76 61 59 SE6 29.77F $$ MAZALL-211700- CAPE COD AND THE ISLANDS CITY SKY/WX TMP DP RH WIND PRES REMARKS FALMOUTH FAIR 75 64 69 VRB7 29.79F HYANNIS FAIR 73 64 73 SW9 29.78S CHATHAM LGT RAIN 75 64 68 VRB6 29.79F PROVINCETOWN FAIR 74 62 66 SW10 29.79S NANTUCKET LGT RAIN 64 63 96 SE5 29.80S FOG MARTHAS VNYRD FAIR 69 65 86 S6 29.79S $$ MAZALL-211700- CENTRAL AND WESTERN MASSACHUSETTS CITY SKY/WX TMP DP RH WIND PRES REMARKS WORCESTER FAIR 77 58 51 CALM 29.81S FITCHBURG FAIR 79 57 46 NE6 29.78F ORANGE FAIR 80 55 42 NW7 29.80F SPRINGFIELD MOSUNNY 79 57 47 E7 29.78F WESTFIELD FAIR 79 54 41 NE8 29.79F NORTH ADAMS FAIR 75 58 55 N9 29.81F PITTSFIELD FAIR 78 55 44 VRB5 29.81F $$ RIZALL-211700- RHODE ISLAND CITY SKY/WX TMP DP RH WIND PRES REMARKS PROVIDENCE FAIR 75 59 57 SE7 29.79S NEWPORT FAIR 72 65 78 S7 29.79S BLOCK ISLAND CLOUDY 65 64 97 NE6 29.80S SMITHFIELD FAIR 79 58 48 NE9 29.79S WESTERLY PTSUNNY 73 67 81 SE7 29.79F $$ CTZALL-211700- CONNECTICUT CITY SKY/WX TMP DP RH WIND PRES REMARKS BRADLEY INTL FAIR 80 57 45 VRB3 29.79S HARTFORD FAIR 80 59 48 N6 29.77F BRIDGEPORT FAIR 71 63 75 E8 29.79S DANBURY FAIR 77 58 51 NE8 29.80F GROTON FAIR 71 63 75 S8 29.78S NEW HAVEN FAIR 74 63 68 S9 29.78F CHESTER FAIR 79 63 57 CALM 29.79F MERIDEN FAIR 81 53 37 N6 29.77F WILLIMANTIC FAIR 81 55 40 E6 29.78S OXFORD FAIR 77 57 50 VRB7 29.81S $$ MEZ002-015-021-024-NHZ003-005-008-011-012-014-VTZ005-008-211700- NORTHERN NEW ENGLAND CITY SKY/WX TMP DP RH WIND PRES REMARKS PORTLAND ME PTSUNNY 71 53 52 VRB6 29.79S BANGOR ME FAIR 71 48 43 NW10 29.79F CONCORD NH PTSUNNY 73 57 57 NW8 29.80S MANCHESTER NH PTSUNNY 80 57 45 N8G16 29.77F NASHUA NH PTSUNNY 77 59 53 NW7 29.78F PORTSMOUTH NH PTSUNNY 77 56 46 N6 29.77S JAFFREY NH CLOUDY 78 57 48 NW9 29.81S KEENE NH CLOUDY 79 56 45 N10 29.80F BURLINGTON VT FAIR 67 44 43 NW14 29.89S MT. WASHINGTON MOSUNNY 43 34 70 NW18G25 N/A $$ NYZ052-076-211700- EASTERN NEW YORK CITY SKY/WX TMP DP RH WIND PRES REMARKS ALBANY FAIR 75 58 55 N10 29.83S NEW YORK CITY FAIR 77 62 59 CALM 29.78S $$ ANZALL-211700- MARINE OBSERVATIONS STATION/POSITION TIME TEMP WIND PRES VSBY WAVE AIR SEA DIR/SP/G HT/PER (UTC) (F) (DEG/KT/KT) (MB) (MI) (FT/S) BOSTON BUOY 1550 70 67 20/ 4/ 6 1008.5R 1 BUZZARDS BAY 1500 63 70/ 4/ 4 1009.6R NANTUCKET SOUND 1550 64 65 160/ 6/ 8 1008.9R 1 MASS BAY-STELLWA 1504 63 62 1007.3R 1/ 8 ISLE OF SHOALS 1600 67 60/ 12/ 12 1008.1S S OF BLOCK IS 1543 62 N/A 2/ 7 $$ ......................KEY......................... SKY/WX - SKY CONDITION/PRESENT WEATHER TMP - TEMPERATURE IN FAHRENHEIT DWPT - DEWPOINT IN FAHRENHEIT RH - RELATIVE HUMIDITY IN PERCENT WIND - DIRECTION AND SPEED IN MPH PRES - MEAN SEA LEVEL PRESSURE IN INCHES OF HG WCI - WIND CHILL INDEX VSB - VISIBILITY IN MILES HX - HEAT INDEX TC - TEMPERATURE IN CELSIUS VRB - VARIABLE WIND DIRECTION N/A - NOT AVAILABLE

USA.gov is the U.S. government's official web portal to all federal, state and local government web resources and services.